Regional Weather Roundup
Issued by NWS

Home | Current Version | Previous Version | Text Only | Print | Product List | Glossary Off
Versions: 1 2 3 4 5 6 7 8 9 10 11 12 13 14 15 16 17 18 19 20 21 22 23 24 25 26 27 28 29 30 31 32 33 34 35 36 37 38 39 40 41 42 43 44 45 46 47 48 49 50

000
ASUS43 KLOT 252000
RWRIL

ILLINOIS REGIONAL WEATHER ROUNDUP
NATIONAL WEATHER SERVICE CHICAGO/ROMEOVILLE IL
300 PM CDT FRI JUL 25 2014

NOTE: "FAIR" INDICATES FEW OR NO CLOUDS BELOW 12,000 FEET WITH NO
SIGNIFICANT WEATHER AND/OR OBSTRUCTIONS TO VISIBILITY.

* THESE STATIONS ARE NOT UNDER NWS QUALITY CONTROL. THEY ALSO MAY NOT
  REPORT WEATHER SUCH AS PRECIPITATION OR FOG.

ILZ001-002-007-009-015-016-024-252100-
NORTHWEST ILLINOIS

CITY           SKY/WX    TMP DP  RH WIND       PRES   REMARKS
MOLINE         PTSUNNY   74  64  71 VRB5      29.88R
STERLING*      CLOUDY    70  61  73 S8        29.94F
$$

ILZ003-004-008-010-011-017-018-252100-
NORTH CENTRAL ILLINOIS

CITY           SKY/WX    TMP DP  RH WIND       PRES   REMARKS
ROCKFORD       CLOUDY    69  59  70 S9        29.97F
FREEPORT*      CLOUDY    64  59  85 S3        29.97S
$$

ILZ005-006-012>014-019>023-252100-
NORTHEAST ILLINOIS

CITY           SKY/WX    TMP DP  RH WIND       PRES   REMARKS
CHICAGO-OHARE  PTSUNNY   74  56  53 SW12      29.96R
CHICAGO-MIDWAY CLOUDY    76  59  55 SW18      29.97R
AURORA         CLOUDY    70  59  68 SW9       29.98R
LANSING*       CLOUDY    73  57  58 SW13      29.98R
WAUKEGAN       CLOUDY    73  54  51 S15       29.95R
DUPAGE AIRPORT CLOUDY    73  59  61 SW15      29.97R
WHEELING       CLOUDY    75  57  53 SW10G16   29.98R
NORTHERLY ISL    N/A     74  55  51 S9          N/A
$$

LMZ740>746-252100-
SOUTHERN LAKE MICHIGAN

STATION/POSITION SKY/WX   TEMP    WIND        PRES    VSBY  WAVE
                          AIR SEA DIR/SP/G                  HT/PER
                          (F)     (DEG/KT/KT) (MB)    (MI)  (FT/S)
SOUTHERN BUOY              64 61  170/ 10/ 12 1014.7F         1/ 3
WAUKEGAN HARBOR            73     220/ 15/ 19   N/A
HARRISON CRIB              70     180/ 19/ 22   N/A
BURNHAM HARBOR             73     210/ 12/ 20   N/A
CALUMET HARBOR             72     210/ 12/ 19 1013.6R
BURNS HARBOR               73     200/ 16/ 24 1015.2F
MICHIGAN CITY              71     180/ 14/ 18   N/A
MICHIGAN CITY 6N           71 68  180/ 14/ 19   N/A           2/ 3
ST. JOSEPH                 68 65  170/ 10/ 14   N/A           1/ 3
$$

ILZ025>027-034>036-040-047-049-050-058-095>099-252100-
WEST-CENTRAL ILLINOIS

CITY           SKY/WX    TMP DP  RH WIND       PRES   REMARKS
QUINCY         MOSUNNY   72  62  71 S20G36    29.89F
GALESBURG*     PTSUNNY   71  64  79 S20G30    29.86F
MACOMB*        PTSUNNY   69  63  80 S20       29.89F
$$

ILZ028>032-037-038-041>044-048-051>054-059>061-252100-
CENTRAL ILLINOIS

CITY           SKY/WX    TMP DP  RH WIND       PRES   REMARKS
DECATUR        CLOUDY    68  61  78 S10       29.95S
PEORIA         LGT RAIN  69  63  81 SW15G29   29.87F
SPRINGFIELD    CLOUDY    68  62  81 S15G23    29.94R
TAYLORVILLE    NOT AVBL
$$

ILZ033-039-045-046-055>057-062-063-252100-
EAST-CENTRAL ILLINOIS

CITY           SKY/WX    TMP DP  RH WIND       PRES   REMARKS
CHAMPAIGN      CLOUDY    69  62  78 S14       29.96F
MATTOON        LGT RAIN  67  62  84 S18G28    29.94F
$$

ILZ079-100>102-252100-
SOUTHWEST ILLINOIS

CITY           SKY/WX    TMP DP  RH WIND       PRES   REMARKS
ALTON          PTSUNNY   66  66 100 SE18      29.96F
CAHOKIA*       CLOUDY    70  63  78 E10       30.08R
$$

ILZ064>066-069>071-074>076-080>082-084>086-088>090-092>094-252100-
SOUTH-CENTRAL ILLINOIS

CITY           SKY/WX    TMP DP  RH WIND       PRES   REMARKS
CARBONDALE     CLOUDY    77  59  53 S3        30.06R
MARION         PTSUNNY   79  59  50 S3        30.07R HX  80
MT. VERNON     CLOUDY    73  61  64 N5        30.10R
SALEM*         RAIN      72  67  83 N7        30.13R
$$

ILZ067-068-072-073-078-083-087-091-252100-
SOUTHEAST ILLINOIS

CITY           SKY/WX    TMP DP  RH WIND       PRES   REMARKS
LAWRENCEVILLE  CLOUDY    74  59  59 CALM      30.06F
HARRISBURG*    CLOUDY    77  60  55 NE3       30.08R
ROBINSON*      CLOUDY    74  64  70 SW6       30.06F
CARMI*         CLOUDY    79  63  57 W3        30.08R HX  80
$$

ABBREVIATIONS USED IN REMARKS
   TC - TEMPERATURE IN CELSIUS
  WCI - WIND CHILL INDEX
   HX - HEAT INDEX
  VSB - VISIBILITY
$$




USA.gov is the U.S. government's official web portal to all federal, state and local government web resources and services.